TimePST,TemperatureF,Dew PointF,Humidity,Sea Level PressureIn,VisibilityMPH,Wind Direction,Wind SpeedMPH,Gust SpeedMPH,PrecipitationIn,Events,Conditions,WindDirDegrees,DateUTC
12:55 AM,46.9,39.9,77,30.11,10.0,NNW,4.6,-,N/A,,Clear,330,2012-12-25 08:55:00
1:55 AM,46.0,39.0,76,30.11,10.0,Calm,Calm,-,N/A,,Clear,0,2012-12-25 09:55:00
2:55 AM,44.1,39.0,82,30.12,10.0,Calm,Calm,-,N/A,,Clear,0,2012-12-25 10:55:00
3:55 AM,45.0,37.9,76,30.11,10.0,Calm,Calm,-,N/A,,Clear,0,2012-12-25 11:55:00
4:55 AM,46.0,37.0,71,30.09,10.0,NE,8.1,-,N/A,,Clear,50,2012-12-25 12:55:00
5:55 AM,48.9,37.9,66,30.10,10.0,NE,6.9,-,N/A,,Clear,50,2012-12-25 13:55:00
6:55 AM,50.0,37.9,63,30.11,10.0,ENE,4.6,-,N/A,,Clear,70,2012-12-25 14:55:00
7:55 AM,52.0,37.9,59,30.12,10.0,NE,8.1,-,N/A,,Clear,50,2012-12-25 15:55:00
8:55 AM,54.0,39.0,57,30.11,10.0,ENE,8.1,-,N/A,,Clear,60,2012-12-25 16:55:00
9:55 AM,57.9,37.0,46,30.14,10.0,NE,3.5,-,N/A,,Clear,50,2012-12-25 17:55:00
10:55 AM,57.9,41.0,53,30.14,10.0,NW,5.8,-,N/A,,Clear,310,2012-12-25 18:55:00
11:55 AM,60.1,39.0,46,30.12,10.0,WNW,4.6,-,N/A,,Clear,290,2012-12-25 19:55:00
12:55 PM,60.1,36.0,41,30.08,10.0,Calm,Calm,-,N/A,,Clear,0,2012-12-25 20:55:00
1:55 PM,61.0,37.9,42,30.07,10.0,Variable,3.5,-,N/A,,Clear,0,2012-12-25 21:55:00
2:55 PM,62.1,37.9,41,30.05,10.0,Calm,Calm,-,N/A,,Clear,0,2012-12-25 22:55:00
3:55 PM,61.0,39.9,46,30.03,10.0,Calm,Calm,-,N/A,,Clear,0,2012-12-25 23:55:00
4:55 PM,57.0,44.1,62,30.02,10.0,Calm,Calm,-,N/A,,Clear,0,2012-12-26 00:55:00
5:55 PM,52.0,43.0,71,30.02,10.0,NE,3.5,-,N/A,,Clear,40,2012-12-26 01:55:00
6:55 PM,51.1,43.0,74,30.01,10.0,Calm,Calm,-,N/A,,Clear,0,2012-12-26 02:55:00
7:55 PM,50.0,42.1,74,30.03,10.0,SE,6.9,-,N/A,,Scattered Clouds,130,2012-12-26 03:55:00
8:55 PM,46.9,39.9,77,30.04,10.0,Calm,Calm,-,N/A,,Partly Cloudy,0,2012-12-26 04:55:00
9:55 PM,46.0,37.9,73,30.04,10.0,ENE,5.8,-,N/A,,Clear,70,2012-12-26 05:55:00
10:28 PM,46.4,37.4,71,30.01,10.0,Calm,Calm,-,N/A,,Mostly Cloudy,0,2012-12-26 06:28:00
10:55 PM,46.9,39.9,77,30.03,10.0,NE,3.5,-,N/A,,Mostly Cloudy,40,2012-12-26 06:55:00
11:33 PM,48.2,39.2,71,29.98,10.0,ENE,8.1,-,N/A,,Overcast,70,2012-12-26 07:33:00
11:55 PM,48.9,37.0,64,30.01,10.0,NE,3.5,-,N/A,,Mostly Cloudy,50,2012-12-26 07:55:00